Cloud_Cover
0 0 40 16 4 92 62 39 31 12 18 26 38 25 15 1 2 31 27 51 34 1
0 0 2 5 9 7 2 0 9 0 22 13 17 5 0 0 0 0 0 0 5 5
0 0 0 0 1 0 0 0 0 0 21 34 31 14 0 0 0 0 0 2 7 61
0 0 0 0 0 0 0 1 0 0 17 18 22 23 0 0 0 0 2 10 73 58
0 0 0 0 0 0 0 0 0 0 12 22 17 22 3 0 5 50 25 81 9 13
0 0 0 0 1 0 6 1 11 4 10 14 12 5 0 2 2 10 99 100 100 99
0 0 0 66 87 17 83 64 91 31 5 2 1 0 0 4 5 99 100 78 40 3
0 20 62 98 100 100 100 54 24 5 4 0 0 0 5 5 5 55 5 5 5 5
42 100 100 100 100 100 100 100 100 74 5 5 2 5 5 98 57 0 0 5 5 5
95 100 100 100 100 100 100 100 100 43 18 46 19 43 6 64 80 5 4 0 0 4
100 100 100 100 100 100 100 100 100 94 32 78 31 100 93 100 58 85 6 0 0 5
100 93 98 100 100 100 100 100 100 100 100 100 100 94 100 100 52 81 5 5 5 7
100 100 100 100 100 100 100 100 100 100 95 100 100 94 100 100 100 57 5 7 43 60
100 100 100 100 100 100 100 100 100 100 100 100 100 100 100 100 98 61 80 100 89 62